Flag for Germany Weather past 2 weeks in Husum, Schleswig-Holstein, Germany

Now
59 °F

Passing clouds.


Feels Like: 60 °F
Forecast: 62 / 79 °F
Wind: 3 mph from Northeast

Location: Schleswig-Jagel

Current Time: Jul 23, 2014 at 6:29:31 AM

Latest Report: Jul 23, 2014 at 5:20 AM


Visibility: 6 mi

Pressure: 30.21 "Hg

Humidity: 94%

Dew point: 57 °F

Location of HusumLocation

Historic Weather in Husum — Graph

°F

Husum temperature yesterday

Maximum temperature yesterday: 82 °F (at 3:20 PM)
Minimum temperature yesterday: 63 °F (at 2:20 AM)
Average temperature yesterday: 73 °F

Past Weeks' High & Low Weather Summary

 TemperatureHumidityPressure
High86 °F (Jul 19, 1:20 PM)100% (Jul 8, 1:20 PM)30.21 "Hg (Jul 8, 1:20 PM)
Low48 °F (Jul 17, 5:20 AM)31% (Jul 12, 4:20 PM)29.59 "Hg (Jul 14, 2:20 AM)
Average68 °F71%29.96 "Hg
* Reported Jul 8 5:20 AM — Jul 23 5:20 AM, Husum, Weather by CustomWeather, © 2014

Note: Actual official high and low records may vary slightly from our data, if they occured in-between our weather recording intervals... More about our weather records

Advertising

Husum weather history for previous 24 hours

 ConditionsComfort  
Time TempWeatherWind HumidityBarometerVisibility
5:20 AM
Jul 23
59 °FCool.3 mph94%30.21 "Hg6 mi
4:20 AM61 °FCool.1 mph88%30.21 "Hg6 mi
3:20 AM61 °FCool.7 mph83%30.21 "Hg4 mi
2:20 AM63 °FMild.7 mph83%30.21 "Hg4 mi
1:20 AM63 °FMild.6 mph88%30.21 "Hg4 mi
6:20 PM
Jul 22
79 °FWarm.16 mph51%30.15 "Hg5 mi
5:20 PM82 °FWarm.16 mph42%30.15 "Hg5 mi
4:20 PM82 °FPartly sunny.18 mph37%30.15 "HgN/A
3:20 PM82 °FPartly sunny.16 mph35%30.15 "HgN/A
2:20 PM81 °FPartly sunny.16 mph34%30.15 "HgN/A
1:20 PM81 °FPartly sunny.20 mph34%30.15 "HgN/A
12:20 PM81 °FPartly sunny.18 mph37%30.15 "HgN/A
11:20 AM79 °FPassing clouds.21 mph39%30.15 "HgN/A
10:20 AM77 °FPassing clouds.17 mph44%30.12 "HgN/A
9:20 AM75 °FPassing clouds.17 mph54%30.12 "HgN/A
8:20 AM72 °FPassing clouds.12 mph69%30.12 "HgN/A
7:20 AM68 °FPassing clouds.9 mph78%30.12 "HgN/A
6:20 AM66 °FPassing clouds.10 mph83%30.09 "HgN/A
Weather by CustomWeather, © 2014

See weather overviewHow to use our weather pages